Nitra, Slovakia

2:07 PM CEST on August 17, 2017 (GMT +0200)
Nitra

Weather History for 11855 - July, 2013

Change the Weather History Date:

Thursday, July 18, 2013

  Actual Average Record
Temperature  
Mean Temperature 73 °F -  
Max Temperature 89 °F - - ()
Min Temperature 57 °F - - ()
Cooling Degree Days 8    
Growing Degree Days 23 (Base 50)    
Moisture  
Dew Point 56 °F    
Average Humidity 48    
Maximum Humidity 83    
Minimum Humidity 22    
Precipitation  
Precipitation 0.00 in - - ()
Sea Level Pressure  
Sea Level Pressure 30.13 in    
Wind  
Wind Speed 2 mph ()    
Max Wind Speed 7 mph    
Max Gust Speed -    
Visibility 15.9 miles    
Events      
T = Trace of Precipitation, MM = Missing Value Source: Averaged Metar Reports

Daily Weather History Graph

Daily Weather History Graph

Search for Another Location

Airport or City:

Trip Planner

Search our weather history database for the weather conditions in past years. The results will help you decide how hot, cold, wet, or windy it might be!

Date:

Astronomy

Jul. 18, 2013 Rise Set
Actual Time 5:05 AM CEST 8:41 PM CEST
Civil Twilight 4:26 AM CEST 9:20 PM CEST
Nautical Twilight 3:33 AM CEST 10:12 PM CEST
Astronomical Twilight 2:20 AM CEST 11:24 PM CEST
Moon 4:14 PM CEST (7/18) 12:48 AM CEST (7/18)
Length of Visible Light 16h 53m
Length of Day
15h 35m
Waxing Gibbous, 75% of the Moon is Illuminated
Jul 18
Waxing Gibbous
Jul 22
Full
Jul 29
Last Quarter
Aug 6
New
Aug 14
First Quarter

Hourly Weather History & Observations

Time (CEST) Temp. Dew Point Humidity Pressure Visibility Wind Dir Wind Speed Gust Speed Precip Events Conditions
12:00 AM 62 °F 54 °F 69% 30.14 in 12 mi SE 2.2 mph - -  
1:00 AM 62 °F 55 °F 70% 30.14 in 14 mi Calm Calm - -  
2:00 AM 60 °F 53 °F 71% 30.14 in 11 mi 2.2 mph - -  
3:00 AM 59 °F 53 °F 76% 30.15 in 10 mi 2.2 mph - -  
4:00 AM 59 °F 55 °F 81% 30.15 in 11 mi 2.2 mph - -  
5:00 AM 58 °F 54 °F 83% 30.16 in 10 mi Calm Calm - -  
6:00 AM 60 °F 55 °F 79% 30.17 in 14 mi 2.2 mph - -  
7:00 AM 64 °F 58 °F 73% 30.16 in 13 mi 2.2 mph - -  
8:00 AM 71 °F 58 °F 53% 30.15 in 19 mi 2.2 mph - -   Partly Cloudy
9:00 AM 77 °F 57 °F 40% 30.15 in 17 mi East 4.5 mph - -   Partly Cloudy
10:00 AM 80 °F 57 °F 34% 30.15 in 17 mi ESE 4.5 mph - -   Scattered Clouds
11:00 AM 82 °F 56 °F 31% 30.14 in 17 mi 4.5 mph - -   Scattered Clouds
12:00 PM 85 °F 57 °F 28% 30.13 in 19 mi 4.5 mph - -   Scattered Clouds
1:00 PM 87 °F 54 °F 22% 30.12 in 19 mi 4.5 mph - -   Partly Cloudy
2:00 PM 88 °F 54 °F 22% 30.11 in 19 mi 2.2 mph - -   Partly Cloudy
3:00 PM 86 °F 55 °F 24% 30.10 in 19 mi WSW 6.7 mph - -   Partly Cloudy
4:00 PM 85 °F 54 °F 24% 30.09 in 19 mi NNE 6.7 mph - -   Scattered Clouds
5:00 PM 84 °F 56 °F 28% 30.09 in 19 mi ENE 6.7 mph - -   Scattered Clouds
6:00 PM 82 °F 56 °F 30% 30.08 in 19 mi 4.5 mph - -   Scattered Clouds
7:00 PM 83 °F 56 °F 29% 30.08 in 19 mi ENE 4.5 mph - -   Scattered Clouds
8:00 PM 80 °F 58 °F 36% 30.08 in 19 mi 2.2 mph - -   Scattered Clouds
11:00 PM 69 °F 58 °F 59% 30.10 in 14 mi 2.2 mph - -